Location: Newark
(51.1667°N, 4.4833°E)
Time: 08:09:29
(UTC+00:00)

NOAA 19 - Visible Passes

Search period start: 12 December 2019 00:00
Search period end: 22 December 2019 00:00
Orbit: 842 x 860 km, 99.2° (Epoch: 11 December)

Date Brightness Start Highest point End Pass type
(mag) Time Alt. Az. Time Alt. Az. Time Alt. Az.
12 Dec 7.7 04:17:35 10° NE 04:21:35 20° E 04:25:34 10° SE visible
12 Dec 5.1 05:57:19 10° NNE 06:02:53 77° WNW 06:08:23 10° SSW visible
12 Dec 7.5 17:30:21 10° SSW 17:34:57 26° W 17:39:36 10° NW visible
13 Dec 8.0 04:06:22 10° NE 04:09:44 16° E 04:13:05 10° SE visible
13 Dec 5.2 05:45:37 10° NNE 05:51:12 88° ESE 05:56:44 10° SSW visible
13 Dec 7.1 17:18:13 10° SSW 17:23:09 32° W 17:28:07 10° NNW visible
14 Dec 8.2 03:55:23 10° ENE 03:57:51 13° E 04:00:18 10° ESE visible
14 Dec 5.5 05:33:56 10° NNE 05:39:30 73° ESE 05:45:00 10° S visible
14 Dec 6.8 17:06:11 10° SSW 17:11:22 39° W 17:16:34 10° NNW visible
15 Dec 8.4 03:45:39 10° E 03:45:56 10° E 03:46:15 10° E visible
15 Dec 5.8 05:22:17 10° NNE 05:27:47 60° ESE 05:33:13 10° S visible
15 Dec 6.4 16:54:16 10° S 16:59:36 48° W 17:05:00 10° NNW visible
16 Dec 6.2 05:10:40 10° NNE 05:16:02 49° E 05:21:22 10° S visible
16 Dec 5.8 06:51:38 10° N 06:56:33 33° WNW 07:01:25 10° WSW visible
16 Dec 6.0 16:42:23 10° S 16:47:52 58° WSW 16:53:23 10° NNW visible
17 Dec 6.6 04:59:05 10° NNE 05:04:17 40° E 05:09:26 10° SSE visible
17 Dec 5.6 06:39:50 10° N 06:44:57 40° WNW 06:50:02 10° SW visible
17 Dec 5.6 16:30:36 10° S 16:36:09 71° WSW 16:41:44 10° NNW visible
17 Dec 8.3 18:15:27 10° WSW 18:17:48 13° W 18:20:11 10° WNW visible
18 Dec 6.9 04:47:33 10° NNE 04:52:30 33° E 04:57:25 10° SSE visible
18 Dec 5.4 06:28:03 10° N 06:33:21 48° WNW 06:38:36 10° SW visible
18 Dec 5.4 16:18:52 10° SSE 16:24:26 86° WSW 16:30:03 10° NNW visible
18 Dec 8.2 18:02:38 10° WSW 18:05:55 16° W 18:09:14 10° NW visible
19 Dec 7.3 04:36:03 10° NE 04:40:42 27° E 04:45:17 10° SSE visible
19 Dec 5.3 06:16:17 10° N 06:21:43 58° WNW 06:27:05 10° SW visible
19 Dec 5.2 16:07:12 10° SSE 16:12:45 79° ENE 16:18:21 10° NNW visible
19 Dec 7.9 17:50:08 10° SW 17:54:03 20° W 17:58:01 10° NW visible
20 Dec 7.6 04:24:38 10° NE 04:28:52 22° E 04:33:04 10° SE visible
20 Dec 5.1 06:04:33 10° NNE 06:10:04 70° WNW 06:15:32 10° SSW visible
20 Dec 7.7 17:37:49 10° SW 17:42:13 24° W 17:46:40 10° NW visible
21 Dec 7.8 04:13:20 10° NE 04:17:01 18° E 04:20:41 10° SE visible
21 Dec 5.2 05:52:50 10° NNE 05:58:24 84° WNW 06:03:54 10° SSW visible
21 Dec 7.3 17:25:38 10° SSW 17:30:25 29° W 17:35:13 10° NW visible
